FW1898 Weather Reports


time (UTC)temp
C
wind
direction
speed
KPH
gust
KPH
rain 1hr
cm
rain 24hr
cm
rain mn
cm
humidity
%
barometer
mb
20260506214325 11 264 9.7 12.9 0.00 1.50 0.48 100 1118.1
20260506213326 11 291 6.4 11.3 0.00 1.52 0.48 100 1118.0
20260506212425 11 300 11.3 16.1 0.00 1.52 0.48 100 1117.9
20260506211426 11 287 11.3 16.1 0.00 1.52 0.48 100 1117.9
20260506210524 11 296 11.3 16.1 0.00 1.52 0.48 100 1117.6
20260506205624 11 285 9.7 14.5 0.00 1.52 0.48 100 1117.6
20260506204626 11 284 9.7 11.3 0.00 1.52 0.48 100 1117.6
20260506203724 11 289 9.7 19.3 0.00 1.52 0.48 100 1117.8
20260506202725 11 293 12.9 19.3 0.00 1.52 0.48 100 1117.9
20260506201726 11 288 9.7 14.5 0.00 1.52 0.48 100 1117.9
20260506194924 11 294 8.0 11.3 0.00 1.57 0.48 100 1117.7
20260506194010 11 292 4.8 9.7 0.00 1.63 0.48 100 1117.6
20260506193025 11 286 9.7 12.9 0.00 1.63 0.48 100 1117.8
20260506192125 11 279 3.2 6.4 0.00 1.63 0.48 100 1117.8
20260506190224 11 292 3.2 6.4 0.00 1.63 0.48 100 1117.7
20260506185226 12 291 4.8 6.4 0.00 1.63 0.48 100 1117.9
20260506184208 12 296 8.0 9.7 0.00 1.63 0.48 100 1118.1
20260506183225 12 280 6.4 11.3 0.00 1.63 0.48 100 1117.8
20260506182226 12 306 6.4 14.5 0.00 1.63 0.48 100 1118.0
20260506181225 12 291 9.7 14.5 0.00 1.63 0.48 100 1117.8
20260506180323 13 317 3.2 9.7 0.00 1.63 0.48 100 1117.8
20260506175325 12 291 12.9 22.5 0.00 1.63 0.48 100 1118.0
20260506172326 12 312 6.4 12.9 0.00 1.63 0.48 100 1117.6
20260506171325 12 294 12.9 19.3 0.00 1.63 0.48 100 1117.6
20260506170423 12 299 8.0 12.9 0.00 1.63 0.48 100 1117.5
20260506165425 12 307 8.0 11.3 0.00 1.63 0.48 100 1117.6
20260506164425 12 288 11.3 14.5 0.00 1.63 0.48 100 1118.0
20260506163425 12 297 9.7 16.1 0.00 1.63 0.48 100 1118.1
20260506162426 12 312 8.0 12.9 0.00 1.63 0.48 100 1117.9
20260506161427 11 288 9.7 17.7 0.00 1.63 0.48 100 1117.6
20260506160508 11 295 9.7 14.5 0.00 1.63 0.48 100 1117.6
20260506155526 11 286 9.7 19.3 0.00 1.63 0.48 100 1117.4
20260506154524 12 286 8.0 11.3 0.00 1.63 0.48 100 1117.4
20260506152625 11 305 6.4 11.3 0.00 1.63 0.48 100 1117.4
20260506150624 10 299 8.0 12.9 0.00 1.63 0.48 100 1117.1
20260506145626 10 296 9.7 14.5 0.00 1.63 0.48 100 1116.7
20260506145524 10 295 9.7 17.7 0.00 1.63 0.48 100 1116.7
20260506144525 9 298 6.4 9.7 0.00 1.63 0.48 100 1116.6
20260506143525 9 306 11.3 19.3 0.00 1.63 0.48 100 1116.3
20260506142525 9 295 8.0 17.7 0.00 1.63 0.48 100 1116.2
20260506141524 8 299 8.0 12.9 0.00 1.63 0.48 100 1116.3
20260506140528 8 291 4.8 12.9 0.00 1.63 0.48 100 1116.3
20260506135623 8 286 8.0 12.9 0.00 1.63 0.48 100 1116.1
20260506134624 8 294 9.7 14.5 0.00 1.63 0.48 100 1116.1
20260506132629 7 294 6.4 11.3 0.00 1.63 0.48 100 1115.9
20260506131724 7 289 4.8 9.7 0.00 1.63 0.48 100 1115.8
20260506130725 7 296 6.4 8.0 0.00 1.63 0.48 100 1115.7
20260506124824 7 304 3.2 6.4 0.00 1.63 0.48 100 1115.1
20260506123824 7 292 6.4 12.9 0.00 1.63 0.48 100 1115.2
20260506122824 7 312 6.4 9.7 0.00 1.63 0.48 100 1114.8
20260506121824 6 295 6.4 12.9 0.00 1.63 0.48 100 1114.6
20260506120825 6 304 8.0 14.5 0.00 1.63 0.48 100 1114.5
20260506115826 6 300 4.8 8.0 0.00 1.63 0.48 100 1114.3
20260506112923 6 292 4.8 6.4 0.00 1.63 0.48 100 1114.3
20260506111925 6 292 1.6 3.2 0.00 1.65 0.48 100 1114.3
20260506110923 6 292 3.2 4.8 0.00 1.65 0.48 100 1114.1
20260506105926 6 337 3.2 4.8 0.00 1.65 0.48 100 1113.4
20260506105023 6 330 1.6 3.2 0.00 1.65 0.48 100 1113.3
20260506104026 6 327 1.6 4.8 0.00 1.65 0.48 100 1113.7
20260506102224 6 301 6.4 12.9 0.00 1.68 0.48 100 1113.6
20260506101224 6 292 6.4 11.3 0.03 1.68 0.48 100 1112.9
20260506100207 6 300 6.4 11.3 0.03 1.68 0.48 100 1113.0
20260506095225 6 315 1.6 3.2 0.03 1.68 0.48 100 1112.6
20260506094225 6 22 3.2 6.4 0.03 1.68 0.48 100 1111.8
20260506093210 6 1 4.8 6.4 0.03 1.68 0.48 100 1111.9
20260506092224 6 315 1.6 4.8 0.03 1.68 0.48 100 1112.5
20260506090226 6 315 1.6 4.8 0.00 1.65 0.46 100 1113.4
20260506085236 6 315 3.2 4.8 0.00 1.65 0.46 100 1113.3
20260506085219 6 315 4.8 4.8 0.00 1.65 0.46 100 1113.3
20260506062322 6 345 6.4 9.7 0.13 1.57 0.38 100 1112.9
20260506061323 7 337 9.7 16.1 0.13 1.52 0.33 100 1112.8
20260506050507 8 337 4.8 6.4 0.15 1.37 0.18 100 1113.4
20260506044523 8 15 8.0 12.9 0.15 1.32 0.13 100 1113.1
20260506042622 8 360 1.6 4.8 0.13 1.24 0.03 100 1113.0
20260506041721 8 352 1.6 6.4 0.13 1.22 0.03 100 1113.1
20260506040724 8 330 3.2 6.4 0.13 1.22 0.03 100 1113.2
20260506034740 8 337 3.2 6.4 0.15 1.17 1.17 100 1113.5
20260506033740 8 331 0.0 1.6 0.18 1.14 1.14 100 1113.7
20260506032739 8 299 6.4 9.7 0.18 1.12 1.12 100 1113.8
20260506031737 8 340 1.6 4.8 0.20 1.09 1.09 100 1114.1
20260506025739 8 315 3.2 4.8 0.30 1.07 1.04 100 1114.3
20260506024838 8 308 3.2 12.9 0.30 1.04 1.02 100 1114.3
20260506023937 8 285 4.8 6.4 0.30 0.99 0.99 100 1114.6
20260506023021 9 336 4.8 8.0 0.28 0.94 0.94 100 1114.5
20260506022038 9 318 1.6 4.8 0.30 0.91 0.89 100 1114.3
20260506021038 9 305 0.0 4.8 0.25 0.84 0.84 100 1114.1
20260506020040 9 311 4.8 8.0 0.20 0.79 0.79 100 1114.0
20260506015137 9 337 3.2 6.4 0.15 0.71 0.71 100 1113.8
20260506014139 10 208 4.8 8.0 0.10 0.69 0.69 100 1113.8
20260506013238 10 272 1.6 6.4 0.08 0.66 0.66 100 1113.6
20260506012238 10 344 4.8 8.0 0.05 0.64 0.61 100 1113.2
20260506011242 10 206 1.6 1.6 0.00 0.58 0.58 100 1113.3
20260506011222 10 337 0.0 1.6 0.00 0.58 0.58 100 1113.3
20260505224241 12 292 3.2 6.4 0.38 0.56 0.56 100 1113.2
20260505222241 12 289 6.4 9.7 0.33 0.48 0.48 100 1113.4
20260505221241 13 260 1.6 4.8 0.28 0.43 0.41 100 1113.4
20260505220240 13 282 6.4 8.0 0.18 0.33 0.33 100 1113.5